Regional Weather Roundup
Issued by NWS

Home | Current Version | Previous Version | Graphics & Text | Print | Product List | Glossary On
Versions: 1 2 3 4 5 6 7 8 9 10 11 12 13 14 15 16 17 18 19 20 21 22 23 24 25 26 27 28 29 30 31 32 33 34 35 36 37 38 39 40 41 42 43 44 45 46 47 48 49 50
000
ASUS43 KBIS 191402
RWRND

NORTH DAKOTA REGIONAL WEATHER ROUNDUP
NATIONAL WEATHER SERVICE BISMARCK ND
900 AM CDT THU APR 19 2018

NOTE: "FAIR" INDICATES FEW OR NO CLOUDS BELOW 12,000 FEET WITH NO
SIGNIFICANT WEATHER AND/OR OBSTRUCTIONS TO VISIBILITY.


NDZ001>003-009>011-017-191500-
NORTHWEST NORTH DAKOTA

CITY           SKY/WX    TMP DP  RH WIND       PRES   REMARKS
WILLISTON      FOG       35  35 100 NE5       30.39R VSB 1
MINOT          CLOUDY    39  34  82 W3        30.40R HAZE
$$

NDZ018>021-031>035-040>046-191500-
SOUTHWEST NORTH DAKOTA

CITY           SKY/WX    TMP DP  RH WIND       PRES   REMARKS
BISMARCK       FOG       31  30  96 CALM      30.42S VSB 1/8
DICKINSON      SNOW      30  30 100 E3        30.35R VSB<1/4
GARRISON         N/A     35  33  92 N6        30.40R
HETTINGER ARPT MOSUNNY   34  29  82 CALM      30.37R
$$

NDZ004>008-012>016-024-026-027-054-191500-
NORTHEAST NORTH DAKOTA

CITY           SKY/WX    TMP DP  RH WIND       PRES   REMARKS
GRAND FORKS    FAIR      39  28  64 CALM      30.40R
GRND FRKS AFB  FAIR      44  25  46 CALM      30.39R
DEVILS LAKE    FAIR      34  31  88 NW7       30.41R
$$

NDZ022-023-025-028>030-036>039-047>053-191500-
SOUTHEAST NORTH DAKOTA

CITY           SKY/WX    TMP DP  RH WIND       PRES   REMARKS
FARGO          FAIR      39  33  79 CALM      30.41R
JAMESTOWN      SUNNY     38  33  82 NW6       30.40R
$$




USA.gov is the U.S. government's official web portal to all federal, state and local government web resources and services.